TimeMST,TemperatureF,Dew PointF,Humidity,Sea Level PressureIn,VisibilityMPH,Wind Direction,Wind SpeedMPH,Gust SpeedMPH,PrecipitationIn,Events,Conditions,WindDirDegrees,DateUTC
12:53 AM,15.1,9.0,77,30.26,10.0,WSW,10.4,-,N/A,,Clear,240,2012-12-29 07:53:00
1:53 AM,17.1,9.0,71,30.27,10.0,WSW,10.4,-,N/A,,Clear,250,2012-12-29 08:53:00
2:53 AM,14.0,7.0,74,30.28,10.0,West,10.4,-,N/A,,Clear,270,2012-12-29 09:53:00
3:53 AM,6.1,1.9,83,30.32,10.0,WSW,4.6,-,N/A,,Clear,240,2012-12-29 10:53:00
4:53 AM,1.0,-2.9,83,30.37,10.0,SW,8.1,-,N/A,,Clear,230,2012-12-29 11:53:00
5:53 AM,1.9,-2.0,83,30.38,10.0,SW,8.1,-,N/A,,Clear,230,2012-12-29 12:53:00
6:53 AM,-2.0,-6.0,83,30.42,10.0,SW,8.1,-,N/A,,Clear,230,2012-12-29 13:53:00
7:53 AM,5.0,-0.9,76,30.40,10.0,Calm,Calm,-,N/A,,Clear,0,2012-12-29 14:53:00
8:53 AM,14.0,6.1,71,30.41,10.0,West,9.2,-,N/A,,Clear,260,2012-12-29 15:53:00
9:53 AM,19.0,9.0,65,30.40,10.0,West,9.2,-,N/A,,Clear,270,2012-12-29 16:53:00
10:53 AM,25.0,10.9,55,30.35,10.0,Calm,Calm,-,N/A,,Clear,0,2012-12-29 17:53:00
11:53 AM,30.0,12.9,49,30.29,10.0,West,3.5,-,N/A,,Clear,270,2012-12-29 18:53:00
12:53 PM,34.0,14.0,44,30.26,10.0,Calm,Calm,-,N/A,,Clear,0,2012-12-29 19:53:00
1:53 PM,35.1,17.1,48,30.22,10.0,East,5.8,-,N/A,,Clear,90,2012-12-29 20:53:00
2:53 PM,36.0,18.0,48,30.20,10.0,North,-9999.0,-,N/A,,Clear,0,2012-12-29 21:53:00
3:53 PM,30.0,18.0,61,30.24,10.0,North,-9999.0,-,N/A,,Clear,0,2012-12-29 22:53:00
4:53 PM,23.0,16.0,74,30.24,10.0,East,11.5,-,N/A,,Clear,80,2012-12-29 23:53:00
5:53 PM,21.0,15.1,78,30.20,10.0,East,12.7,-,N/A,,Clear,80,2012-12-30 00:53:00
6:53 PM,18.0,12.9,81,30.22,10.0,East,8.1,-,N/A,,Clear,80,2012-12-30 01:53:00
7:53 PM,26.1,15.1,63,30.17,10.0,Variable,3.5,-,N/A,,Clear,0,2012-12-30 02:53:00
8:53 PM,30.0,17.1,59,30.11,10.0,South,20.7,-,N/A,,Clear,170,2012-12-30 03:53:00
9:53 PM,28.9,19.0,67,30.07,10.0,South,17.3,-,N/A,,Clear,190,2012-12-30 04:53:00
11:53 PM,25.0,16.0,69,30.01,10.0,South,11.5,-,N/A,,Clear,180,2012-12-30 06:53:00